Regional Weather Roundup
Issued by NWS

Home | Current Version | Previous Version | Graphics & Text | Print | Product List | Glossary On
Versions: 1 2 3 4 5 6 7 8 9 10 11 12 13 14 15 16 17 18 19 20 21 22 23 24 25 26 27 28 29 30 31 32 33 34 35 36 37 38 39 40 41 42 43 44 45 46 47 48 49 50
000
ASUS43 KLOT 021258
RWRIL

ILLINOIS REGIONAL WEATHER ROUNDUP
NATIONAL WEATHER SERVICE CHICAGO/ROMEOVILLE IL
800 AM CDT TUE SEP 02 2014

NOTE: "FAIR" INDICATES FEW OR NO CLOUDS BELOW 12,000 FEET WITH NO
SIGNIFICANT WEATHER AND/OR OBSTRUCTIONS TO VISIBILITY.

* THESE STATIONS ARE NOT UNDER NWS QUALITY CONTROL. THEY ALSO MAY NOT
  REPORT WEATHER SUCH AS PRECIPITATION OR FOG.

ILZ001-002-007-009-015-016-024-021400-
NORTHWEST ILLINOIS

CITY           SKY/WX    TMP DP  RH WIND       PRES   REMARKS
MOLINE         MOSUNNY   66  65  96 CALM      29.90S
$$

ILZ003-004-008-010-011-017-018-021400-
NORTH CENTRAL ILLINOIS

CITY           SKY/WX    TMP DP  RH WIND       PRES   REMARKS
ROCKFORD       CLOUDY    63  62  97 CALM      29.91R
$$

ILZ005-006-012>014-019>023-021400-
NORTHEAST ILLINOIS

CITY           SKY/WX    TMP DP  RH WIND       PRES   REMARKS
CHICAGO-OHARE  PTSUNNY   70  64  81 CALM      29.88R
CHICAGO-MIDWAY PTSUNNY   72  69  90 NW3       29.88S
AURORA         MOSUNNY   67  64  90 CALM      29.90R FOG
WAUKEGAN       SUNNY     68  64  87 CALM      29.88R
DUPAGE AIRPORT MOSUNNY   68  65  90 CALM      29.89R
WHEELING       MOSUNNY   70  65  84 CALM      29.90R
NORTHERLY ISL    N/A     74  66  76 CALM        N/A
$$

LMZ740>746-021400-
SOUTHERN LAKE MICHIGAN

STATION/POSITION SKY/WX   TEMP    WIND        PRES    VSBY  WAVE
                          AIR SEA DIR/SP/G                  HT/PER
                          (F)     (DEG/KT/KT) (MB)    (MI)  (FT/S)
SOUTHERN BUOY              69 69  300/ 10/ 12 1011.2R         1
WAUKEGAN HARBOR            66      CALM  /  3   N/A
HARRISON CRIB              70     290/  4/  4   N/A
BURNHAM HARBOR             71      CALM  /  5   N/A
CALUMET HARBOR             70     230/  4/  5 1010.6S
MICHIGAN CITY              69     150/  5/  8   N/A
MICHIGAN CITY 6N           70 72  210/  8/  8   N/A           1/ 3
ST. JOSEPH                 71 72  300/  2/  4   N/A           1/ 3
$$

ILZ025>027-034>036-040-047-049-050-058-095>099-021400-
WEST-CENTRAL ILLINOIS

CITY           SKY/WX    TMP DP  RH WIND       PRES   REMARKS
$$

ILZ028>032-037-038-041>044-048-051>054-059>061-021400-
CENTRAL ILLINOIS

CITY           SKY/WX    TMP DP  RH WIND       PRES   REMARKS
PEORIA         NOT AVBL
SPRINGFIELD    CLOUDY    71  68  90 SW6       29.93R
TAYLORVILLE    NOT AVBL
$$

ILZ033-039-045-046-055>057-062-063-021400-
EAST-CENTRAL ILLINOIS

CITY           SKY/WX    TMP DP  RH WIND       PRES   REMARKS
CHAMPAIGN      CLOUDY    69  67  93 VRB7G20   29.93R
MATTOON        CLOUDY    68  67  96 S7        29.93R
$$

ILZ079-100>102-021400-
SOUTHWEST ILLINOIS

CITY           SKY/WX    TMP DP  RH WIND       PRES   REMARKS
$$

ILZ064>066-069>071-074>076-080>082-084>086-088>090-092>094-021400-
SOUTH-CENTRAL ILLINOIS

CITY           SKY/WX    TMP DP  RH WIND       PRES   REMARKS
CARBONDALE     CLOUDY    74  70  87 CALM      29.94S
MARION         CLOUDY    73  72  94 SE6       29.96S
$$

ILZ067-068-072-073-078-083-087-091-021400-
SOUTHEAST ILLINOIS

CITY           SKY/WX    TMP DP  RH WIND       PRES   REMARKS
LAWRENCEVILLE  CLOUDY    69  68  96 S9        29.95R FOG
$$

ABBREVIATIONS USED IN REMARKS
   TC - TEMPERATURE IN CELSIUS
  WCI - WIND CHILL INDEX
   HX - HEAT INDEX
  VSB - VISIBILITY
$$




USA.gov is the U.S. government's official web portal to all federal, state and local government web resources and services.